Terminal Aerodrome Forecast
Issued by NWS Sterling, VA

Home | Current Version | Previous Version | Text Only | Print | Product List | Glossary On
Versions: 1 2 3 4 5 6 7 8 9 10 11 12 13 14 15 16 17 18 19 20 21 22 23 24 25 26 27 28 29 30 31 32 33 34 35 36 37 38 39 40 41 42 43 44 45 46 47 48 49 50
000
FTUS41 KLWX 160902 AAA
TAFDCA
TAF AMD
KDCA 160902Z 1609/1712 19011KT P6SM BKN160
     FM161400 21010G17KT P6SM BKN100
     FM162000 23011G20KT P6SM BKN040
     FM162100 23010G19KT 6SM -SHRA VCTS OVC040CB
     FM170000 25007KT P6SM OVC060=

USA.gov is the U.S. government's official web portal to all federal, state and local government web resources and services.